星链-33842 (STARLINK-33842)

导读

STARLINK-33842是美国太空探索技术公司(SpaceX)于2025年5月2日发射的星链(Starlink)低轨互联网星座卫星。星链计划旨在构建全球覆盖、大容量低时延的天基通信系统,提供高速卫星宽带服务,同时具备增强军事导航通信等拓展能力,该卫星运行于近地轨道,助力星链完成全球网络部署,推动全球卫星互联网服务普及。

Basic Information
目录编号:
63782
目录名称:
STARLINK-33842
国际标识:
2025-091H
轨道中心:
EARTH
卫星名称:
星链-33842
卫星全名:
星链-33842 (STARLINK-33842)
卫星状态:
在轨 (已飞行490 天)
发射日期:
2025-05-02 UTC
国别 :
美国 (US)
星等 :
--
Orbit Information
数据来源 国际轨道数据
星历时间: 2026-09-02T01:17:56+0800
2天前
查看轨道信息
半长轴: 6861.174km
偏心率: 0.0002404
轨道倾角: 43.001°
近地点辐角 275.366°
升交点赤经 138.417°
平近点角 84.692°
近地点: 481.387km
远地点: 484.687km
周期: 94.266分钟
每日圈数: 15.275843
Detailed Information
固有亮度:
5
最大亮度:
2.5
卫星平台:
Starlink V1.0
覆盖范围:
全球
运营商:
太空探索技术公司
运营商所在国:
美国
制造商(研发单位):
太空探索技术公司
制造商所在国:
美国
使用方式:
暂无
Satellite Introduction
Starlink 计划是 SpaceX 推出的全球卫星互联网项目,通过发射低轨道卫星,为全球尤其是偏远地区提供高速、低延迟的互联网服务。自 2019 年起,Starlink 已部署数千颗卫星,旨在缩小全球数字鸿沟,推动互联网普及。该项目还为军事、航空等行业提供通信支持,带来广泛经济效益。
2D Orbit Map
3D Orbit Map
Orbit Altitude Analysis Chart
Orbit Inclination Analysis Chart
Orbit Comprehensive Analysis Chart
View Comprehensive Chart
Conjunction Data List
Event ID Objects TCA Miss Dist (km) Collision Risk Probability Collision Risk Index (CRI) Action
CDM_260905-101006-242906-378221
2026-09-05T
10:10:31+0000
0.427 km
远距离
2.020094E-4 高风险 0.81
CDM_260904-211805-629906-378221
2026-09-04T
21:18:15+0000
0.868 km
远距离
3.30553E-5 中风险 0.65
CDM_260905-050805-822106-378221
2026-09-05T
05:08:26+0000
1.101 km
极远距离
1.457758E-5 中风险 0.58
CDM_260905-114406-242906-378221
2026-09-05T
11:44:40+0000
1.240 km
极远距离
8.253453E-6 低风险 0.53
CDM_260905-083606-242906-378221
2026-09-05T
08:36:22+0000
1.414 km
极远距离
5.311062E-6 低风险 0.5
CDM_260905-121205-629906-378221
2026-09-05T
12:12:42+0000
1.755 km
极远距离
3.163235E-6 低风险 0.45
CDM_260902-230204-704106-378221
2026-09-02T
23:02:37+0000
2.141 km
极远距离
2.373071E-6 低风险 0.43
CDM_260905-064205-822106-378221
2026-09-05T
06:42:36+0000
2.148 km
极远距离
1.867659E-6 低风险 0.4
CDM_260904-225205-629906-378221
2026-09-04T
22:52:24+0000
2.154 km
极远距离
1.866817E-6 低风险 0.4
CDM_260903-114906-378206-442021
2026-09-03T
11:49:35+0000
2.299 km
极远距离
1.829903E-6 低风险 0.4